Location: Campolattaro
(41.2833°N, 14.7333°E)
Time: 10:05:17
(UTC+00:00)

Cosmos 2074 Rocket - Pass Details

Date: 19 May 2025
Orbit: 965 x 986 km, 82.9° (Epoch: 23 June)

Event Time Altitude Azimuth Distance (km) Brightness Sun altitude
Rises 19:42:06 0° 349° (N) 3,674 8.0 -13.8°
Reaches altitude 10° 19:44:38 10° 346° (NNW) 2,720 7.2 -14.2°
Maximum altitude 19:50:46 64° 267° (W) 1,066 4.4 -15.0°
Drops below altitude 10° 19:56:51 10° 187° (S) 2,695 6.0 -15.8°
Enters shadow 19:57:26 - 186° (S) 2,915 6.1 -15.9°
